Weather History for Ireland West Airport Knock, Ireland

Change the Weather History Date:

Sunday, October 28, 2012

  Actual Average Record
Temperature  
Mean Temperature 44 °F -  
Max Temperature 46 °F - - ()
Min Temperature 41 °F - - ()
Degree Days  
Heating Degree Days 22    
Moisture  
Dew Point 44 °F    
Average Humidity 94    
Maximum Humidity 100    
Minimum Humidity 87    
Precipitation  
Precipitation 0.39 in - - ()
Sea Level Pressure  
Sea Level Pressure 29.78 in    
Wind  
Wind Speed 14 mph ()    
Max Wind Speed 21 mph    
Max Gust Speed 32 mph    
Visibility 6.7 miles    
Events Rain    
T = Trace of Precipitation, MM = Missing Value Source: Averaged Metar Reports

Daily Weather History Graph

Daily Weather History Graph

Search for Another Location

Airport:

Trip Planner

Search our weather history database for the weather conditions in past years. The results will help you decide how hot, cold, wet, or windy it might be!

Date:

Astronomy

Oct. 28, 2012 Rise Set
Actual Time 7:28 AM GMT 5:08 PM GMT
Civil Twilight 6:51 AM GMT 5:45 PM GMT
Nautical Twilight 6:09 AM GMT 6:27 PM GMT
Astronomical Twilight 5:29 AM GMT 7:07 PM GMT
Moon 4:21 PM GMT (10/28) 6:02 AM GMT (10/28)
Length of Visible Light 10h 54m
Length of Day
9h 40m
Waxing Gibbous, 98% of the Moon is Illuminated
Oct 28
Waxing Gibbous
Oct 29
Full
Nov 7
Last Quarter
Nov 13
New
Nov 20
First Quarter

Hourly Weather History & Observations

Time (GMT) Temp. Windchill Dew Point Humidity Pressure Visibility Wind Dir Wind Speed Gust Speed Precip Events Conditions
1:00 AM 45 °F - 44 °F 95% 30.17 in - West 15.7 mph - -  
6:00 AM 46 °F - 45 °F 95% 29.99 in - WSW 17.9 mph - -  
7:30 AM 44.6 °F 37.4 °F 44.6 °F 100% 29.92 in 6.2 mi WSW 16.1 mph - N/A Rain Light Rain
8:00 AM 44.6 °F 37.4 °F 42.8 °F 93% 29.92 in 6.2 mi WSW 16.1 mph - N/A Rain Light Rain
8:30 AM 44.6 °F 37.4 °F 44.6 °F 100% 29.89 in 6.2 mi WSW 16.1 mph - N/A Rain Light Rain
9:00 AM 44.6 °F 36.4 °F 42.8 °F 93% 29.89 in 6.2 mi WSW 20.7 mph - N/A Rain Light Rain
9:30 AM 44.6 °F 36.9 °F 42.8 °F 93% 29.86 in 6.2 mi WSW 18.4 mph - N/A Rain Rain
10:00 AM 44.6 °F 37.4 °F 42.8 °F 93% 29.83 in 6.2 mi WSW 16.1 mph - N/A Rain Light Rain
10:30 AM 44.6 °F 37.8 °F 42.8 °F 93% 29.83 in 6.2 mi WSW 15.0 mph - N/A   Mostly Cloudy
11:00 AM 44.6 °F 38.1 °F 42.8 °F 93% 29.80 in 6.2 mi WSW 13.8 mph - N/A   Mostly Cloudy
11:30 AM 44.6 °F 37.8 °F 44.6 °F 100% 29.77 in 6.2 mi SW 15.0 mph - N/A   Mostly Cloudy
12:00 PM 46 °F - 44 °F 88% 29.79 in 16 mi SW 15.7 mph - - Rain Light Rain
12:00 PM 46.4 °F 39.8 °F 42.8 °F 87% 29.77 in 6.2 mi SW 16.1 mph - N/A   Mostly Cloudy
12:30 PM 46.4 °F 39.5 °F 44.6 °F 93% 29.74 in 6.2 mi SW 17.3 mph - N/A   Mostly Cloudy
1:00 PM 46.4 °F 38.7 °F 42.8 °F 87% 29.71 in 6.2 mi SW 20.7 mph 32.2 mph N/A Rain Light Rain
1:30 PM 46.4 °F 38.7 °F 44.6 °F 93% 29.71 in 6.2 mi WSW 20.7 mph 32.2 mph N/A Rain Light Rain
2:00 PM 46.4 °F 39.0 °F 44.6 °F 93% 29.68 in 6.2 mi WSW 19.6 mph - N/A Rain Light Rain
2:30 PM 46.4 °F 39.5 °F 44.6 °F 93% 29.68 in 6.2 mi WSW 17.3 mph - N/A Rain Light Rain
3:00 PM 46.4 °F 39.5 °F 44.6 °F 93% 29.65 in 5.6 mi SW 17.3 mph - N/A Rain Light Rain
3:30 PM 46.4 °F 40.1 °F 44.6 °F 93% 29.65 in 4.3 mi WSW 15.0 mph - N/A Rain Light Rain
4:00 PM 44.6 °F 38.1 °F 44.6 °F 100% 29.62 in 5.6 mi WSW 13.8 mph - N/A Rain Light Rain
4:30 PM 44.6 °F 38.8 °F 44.6 °F 100% 29.62 in 5.6 mi SW 11.5 mph - N/A Rain Light Rain
5:00 PM 44.6 °F 38.8 °F 44.6 °F 100% 29.62 in 6.2 mi WSW 11.5 mph - N/A Rain Light Rain
6:00 PM 44 °F - 44 °F 100% 29.66 in 12 mi WSW 8.9 mph - - Rain Light Rain